Location: Fernhill
(41.0167°S, 175.6333°E)
Time: 01:54:30
(UTC+00:00)

Meteor 1-27 Rocket - Pass Details

Date: 08 November 2025
Orbit: 828 x 909 km, 81.3° (Epoch: 13 December)

Event Time Altitude Azimuth Distance (km) Brightness Sun altitude
Rises 11:22:48 0° 188° (S) 3,429 8.0 -31.6°
Reaches altitude 10° 11:25:15 10° 186° (S) 2,480 7.0 -31.7°
Enters shadow 11:29:43 56° 166° (SSE) 998 4.2 -31.8°
